Starlink 3219

operational
NORAD ID: 49724 Int'l Des: 2021-115 Owner: SPXS Country: US Constellation: starlink
LEOCIRCULAR

About Starlink 3219

Description loading...

Live Position

Loading 3D Globe...

Upcoming Passes

Altitude History

Altitude vs Time

uPlot chart will show altitude changes over time

Two-Line Element Set

1 49724U 21115A 25258.18312587 -.00000401 00000-0 -71325-5 0 9993
2 49724 53.2173 217.2203 0001536 89.6110 270.5058 15.08834144209035
Epoch: Sep 15, 2025 • Age: 14 hours

Current Status

Altitude 551.1 km
Velocity 7.59 km/s
Sub-Earth Point -33.62°S, 87.67°W
Launch Date Dec 2, 2021
Age 3.7 years
Type internet

Technical Details

Classification Payload
Mass 290.00 kg
Dry Mass 270.00 kg
Total Mass 290.00 kg
Length 0.20 m
Diameter 2.80 m
Span 9.00 m
Shape Box + pan
Manufacturer SPXS
Bus Type Starlink
Phase Status In Orbit
Owner/State SPXS/US

Large Constellations

Loading constellations...